LSGGLSGS

Guest
Details From LSGG - Geneva
To LSGS - Sion
Flight Number -
Tags generated
Created
Modified
Stats Distance 51 nm / 94 km
Max Altitude 3,500 ft / 1,067 m
Waypoints 3
Social Downloads 0
Likes 0
Share VATSIM

Download

Looking for another format? Having issues loading an existing format? Contact us
Advertisement - Login to hide

Notes

Basic altitude profile: - Ascent Rate: 1000ft/min - Ascent Speed: 130kts - Cruise Altitude: 3500ft - Cruise Speed: 150kts - Descent Rate: 500ft/min - Descent Speed: 125kts

Route

LSGG SPR16 LSGS

ID Type Via Altitude Latitude Longitude Leg Dist Tot Dist Heading (true) Name
O LSGG APT - 0 ft / 0 m 46.23775˚ 6.10617˚ - 0 nm - Geneva
SPR16 FIX - 3,500 ft / 1,067 m 46.22335˚ 6.51667˚ 17 nm 17 nm 93° / 93° -
O LSGS APT - 0 ft / 0 m 46.21895˚ 7.32409˚ 33 nm 50 nm 90° / 91° Sion

Altitude Profile

Advertisement - Login to hide

LSGG

Details ICAO LSGG (GVA)
Name Geneva
Region Switzerland
Timezone Europe/Zurich (UTC+1.0)
Stats Elevation 1,410 ft / 430 m (AMSL)
Location 46.237755° 6.106173°
Runways 2
Magnetic Variation 1.738° E

METAR

LSGG 171920Z 29002KT 9999 FEW050 M00/M02 Q1028 NOSIG

Decode

TAF

TAF TAF LSGG 171725Z 1718/1824 VRB01KT CAVOK TX01/1814Z TNM02/1806Z BECMG 1800/1803 23008KT 9999 BKN090 BECMG 1803/1805 4000 -SN TEMPO 1805/1812 1000 SN VV010 BECMG 1811/1813 9999 NSW BECMG 1812/1815 05007KT BKN014

Decode

Departure Runways

ID Width Length Bearing (true) Bearing (mag) Surface Threshold Offset Overrun Length
05 180 ft / 55 m 12,796 ft / 3,900 m 45.43° 43.69° Concrete 1,079 ft / 329 m 66 ft / 20 m
05L 98 ft / 30 m 2,701 ft / 823 m 45.44° 43.70° Grass 610 ft / 186 m 0 ft / 0 m
23 180 ft / 55 m 12,796 ft / 3,900 m 225.45° 223.71° Concrete 0 ft / 0 m 66 ft / 20 m
23R 98 ft / 30 m 2,701 ft / 823 m 225.45° 223.71° Grass 997 ft / 304 m 0 ft / 0 m

LSGS

Details ICAO LSGS (SIR)
Name Sion
Region Switzerland
Timezone Europe/Zurich (UTC+1.0)
Stats Elevation 1,585 ft / 483 m (AMSL)
Location 46.218954° 7.324090°
Runways 2
Magnetic Variation 2.043° E

METAR

LSGS 171920Z AUTO VRB01KT CAVOK M04/M05 Q1027

Decode

TAF

Not found

Destination Runways

ID Width Length Bearing (true) Bearing (mag) Surface Threshold Offset Overrun Length
07L 98 ft / 30 m 2,167 ft / 661 m 72.83° 70.79° Grass 0 ft / 0 m 0 ft / 0 m
07R 131 ft / 40 m 6,605 ft / 2,013 m 72.84° 70.80° Asphalt 164 ft / 50 m 627 ft / 191 m
25L 131 ft / 40 m 6,605 ft / 2,013 m 252.86° 250.82° Asphalt 164 ft / 50 m 627 ft / 191 m
25R 98 ft / 30 m 2,167 ft / 661 m 252.83° 250.79° Grass 328 ft / 100 m 0 ft / 0 m

Approach Navaids

Runway Type Ident Frequency Range Bearing (true) Bearing (mag) Slope Elevation
25L Localiser ISI 110.70 MHz 45 nm / 83 km 246.48° 244.43° - 1,609 ft / 490 m (AMSL)
25L Glidescope ISI 110.70 MHz 45 nm / 83 km 246.48° 244.43° 6.00° 1,595 ft / 486 m (AMSL)
25L DME ISI 108.35 MHz 45 nm / 83 km - - - 1,609 ft / 490 m (AMSL)

Popular Alternatives